Hourly Data Report for March 10, 2021

MIRAMICHI RCS
NEW BRUNSWICK
Current Station Operator: ECCC - MSC

47°00'34.000" N
65°27'54.000" W
33.00 m
8100989
71744
ACQ

Download Data

Hourly Data (March 2021)
Hourly Data Report for March 10, 2021
TIME
LST
Temp Definition
°C
Dew Point Definition
°C
Rel Hum Definition
%
Precip. Amount Definition
mm

Wind Dir Definition
10's deg

Wind Spd Definition
km/h
Visibility Definition
km
Stn Press Definition
kPa
Hmdx Definition


Wind Chill Definition


Weather Definition


00:00 -6.0 -8.8 81 LegendMM 29 8   102.14   -10 LegendNANA
01:00 -5.6 -8.3 81 LegendMM 31 9   102.19   -10 LegendNANA
02:00 -5.8 -8.5 81 LegendMM 29 5   102.18   -8 LegendNANA
03:00 -8.4 -10.5 85 LegendMM 27 3   102.21   -10 LegendNANA
04:00 -8.1 -10.0 86 LegendMM 21 9   102.34   -13 LegendNANA
05:00 -10.5 -12.3 87 LegendMM 26 5   102.45   -14 LegendNANA
06:00 -12.7 -14.4 87 LegendMM 25 3   102.52   -15 LegendNANA
07:00 -12.0 -13.1 91 LegendMM 26 4   102.62   -15 LegendNANA
08:00 -10.2 -11.6 90 LegendMM 26 6   102.69   -14 LegendNANA
09:00 -6.2 -9.8 76 LegendMM 24 5   102.77   -9 LegendNANA
10:00 -2.8 -7.9 67 LegendMM 20 6   102.77   -5 LegendNANA
11:00 2.0 -6.4 54 LegendMM 12 2   102.78     LegendNANA
12:00 2.6 -6.9 49 LegendMM 23 12   102.70     LegendNANA
13:00 4.7 -7.1 42 LegendMM 24 11   102.65     LegendNANA
14:00 5.8 -6.4 41 LegendMM 24 10   102.57     LegendNANA
15:00 5.7 -6.3 42 LegendMM 17 12   102.46     LegendNANA
16:00 6.2 -5.7 42 LegendMM 18 11   102.40     LegendNANA
17:00 6.3 -6.2 40 LegendMM 21 14   102.35     LegendNANA
18:00 4.7 -5.2 48 LegendMM 18 14   102.33     LegendNANA
19:00 3.4 -5.8 51 LegendMM 19 17   102.28     LegendNANA
20:00 2.3 -6.2 54 LegendMM 21 19   102.29     LegendNANA
21:00 1.5 -5.9 58 LegendMM 20 14   102.22     LegendNANA
22:00 1.1 -5.3 63 LegendMM 20 13   102.13     LegendNANA
23:00 0.8 -4.6 67 LegendMM 21 21   102.07     LegendNANA

Notes on Data Quality.

Legend

  • E = Estimated
  • M = Missing
  • NA = Not Available*
  • [empty] = Indicates an unobserved value
Date modified: